FW4773 Riva MD US current weather conditions

sailwx.info

Wind from 299 at 3 knots gusting 7

Air temperature 6.7° C
Dewpoint 1.0° C

Last reported at 2020-Jan-26 14:47 UTC.
Time now 2020-Jan-26 15:43 UTC

Location: N 38°57' W 076°35'.
View on Google Maps.

See reports from other nearby stations

  
Tides and Currents Weather Stations Pressure Air Temp Water Temp Dewpoint Dewpoint Depression Visibility Wind Speed Wind Dir Waves Ship Positions
date/time (UTC)wind fromknots sea level pressurealtimeterstation pressurevisibilityair tempwater tempwave heightnotes
2020-Jan-26 14:47 299 3 gusting 7 6.7
2020-Jan-26 14:31 271 0 gusting 5 6.7
2020-Jan-26 14:16 300 1 gusting 6 6.1
2020-Jan-26 13:46 301 1 gusting 3 4.4
2020-Jan-26 13:31 212 1.1
2020-Jan-26 13:15 283 -0.0
2020-Jan-26 12:45 221 -1.1
2020-Jan-26 12:31 290 -1.1
2020-Jan-26 12:16 290 0 gusting 1 -1.1
2020-Jan-26 11:45 289 -1.1
2020-Jan-26 11:30 285 -1.1
2020-Jan-26 11:15 277 0 gusting 0 -0.6
2020-Jan-26 10:45 221 -0.6
2020-Jan-26 10:30 221 -0.0
2020-Jan-26 10:15 221 -0.0
2020-Jan-26 09:45 221 -0.0
2020-Jan-26 09:30 221 -0.0
2020-Jan-26 09:18 221 -0.0
2020-Jan-26 08:46 275 0.6
2020-Jan-26 08:31 200 0.6
2020-Jan-26 08:17 293 1.1
2020-Jan-26 07:47 274 1.1
2020-Jan-26 07:31 274 1.7
2020-Jan-26 07:15 274 2.2
2020-Jan-26 06:45 274 3.3
2020-Jan-26 06:30 274 3.9
2020-Jan-26 06:15 289 4.4
2020-Jan-26 05:45 272 0 gusting 3 5.0
2020-Jan-26 05:30 276 0 gusting 2 5.0
2020-Jan-26 05:18 304 2 gusting 6 5.6
2020-Jan-26 04:47 270 0 gusting 1 5.0
2020-Jan-26 04:31 278 0 gusting 2 5.0
2020-Jan-26 04:17 305 0 gusting 2 5.0
2020-Jan-26 03:47 287 5.0
2020-Jan-26 03:31 289 0 gusting 2 5.6
2020-Jan-26 03:16 276 0 gusting 3 6.1
2020-Jan-26 02:46 292 6.1
2020-Jan-26 02:31 300 0 gusting 5 6.7
2020-Jan-26 02:16 276 0 gusting 2 6.1
2020-Jan-26 01:46 276 6.1
2020-Jan-26 01:30 288 6.1
2020-Jan-26 01:15 281 6.1
2020-Jan-26 00:45 283 6.1
2020-Jan-26 00:31 306 6.1
2020-Jan-26 00:15 290 6.7
2020-Jan-25 23:45 298 7.2
2020-Jan-25 23:30 287 7.2
2020-Jan-25 23:15 281 0 gusting 2 7.8
2020-Jan-25 22:46 295 8.3
2020-Jan-25 22:31 302 8.3
2020-Jan-25 22:16 287 1 gusting 6 8.9
2020-Jan-25 21:49 264 1 gusting 6 9.4
2020-Jan-25 21:33 287 1 gusting 8 9.4
2020-Jan-25 21:16 293 4 gusting 11 9.4
2020-Jan-25 21:01 330 2 gusting 6 9.4
2020-Jan-25 20:46 328 2 gusting 10 9.4
2020-Jan-25 20:31 057 3 gusting 8 9.4
2020-Jan-25 20:16 293 4 gusting 10 9.4
2020-Jan-25 20:01 281 0 gusting 12 10.0
2020-Jan-25 19:46 277 5 gusting 9 10.0
2020-Jan-25 19:31 259 2 gusting 7 10.0
2020-Jan-25 19:16 278 2 gusting 8 9.4
2020-Jan-25 18:46 250 2 gusting 9 9.4
2020-Jan-25 18:30 314 3 gusting 6 9.4
2020-Jan-25 18:16 295 4 gusting 6 9.4
2020-Jan-25 18:00 327 3 gusting 8 9.4
2020-Jan-25 17:45 032 0 gusting 4 9.4
2020-Jan-25 17:32 302 2 gusting 6 9.4
2020-Jan-25 17:17 285 1 gusting 7 9.4
2020-Jan-25 17:02 302 1 gusting 6 8.9
2020-Jan-25 16:46 297 3 gusting 7 8.9
2020-Jan-25 16:31 240 1 gusting 6 8.3
2020-Jan-25 16:17 294 1 gusting 5 8.3
2020-Jan-25 16:01 274 2 gusting 7 8.3
2020-Jan-25 15:45 250 1 gusting 4 8.3
2020-Jan-25 15:31 262 3 gusting 6 8.3
2020-Jan-25 15:17 288 2 gusting 5 7.8
2020-Jan-25 15:00 273 1 gusting 4 7.8
2020-Jan-25 14:47 218 0 gusting 1 7.8
2020-Jan-25 14:30 296 7.8
2020-Jan-25 14:15 060 0 gusting 3 7.8
2020-Jan-25 13:46 245 1 gusting 9 7.8
2020-Jan-25 13:30 026 5 gusting 11 7.8
2020-Jan-25 13:15 013 0 gusting 8 7.8
2020-Jan-25 13:00 027 3 gusting 12 7.8
2020-Jan-25 12:45 061 1 gusting 9 7.8
2020-Jan-25 12:30 039 3 gusting 8 7.8
2020-Jan-25 12:15 319 0 gusting 6 7.8
2020-Jan-25 12:00 305 0 gusting 9 7.8
2020-Jan-25 11:47 322 5 gusting 9 7.8
2020-Jan-25 11:16 301 1 gusting 7 8.3
2020-Jan-25 11:02 306 2 gusting 8 8.3
2020-Jan-25 10:46 309 0 gusting 2 8.3
2020-Jan-25 10:32 065 7.8
2020-Jan-25 10:17 036 0 gusting 3 7.8
2020-Jan-25 10:01 082 0 gusting 3 7.8
2020-Jan-25 09:48 062 1 gusting 6 7.8
2020-Jan-25 09:31 064 2 gusting 8 7.8
2020-Jan-25 09:15 150 1 gusting 4 7.8
2020-Jan-25 09:00 075 7.8
2020-Jan-25 08:46 103 1 gusting 3 7.8
2020-Jan-25 08:31 239 7.8
2020-Jan-25 08:16 115 1 gusting 5 7.8
2020-Jan-25 08:00 152 0 gusting 3 7.8
2020-Jan-25 07:45 151 1 gusting 7 8.3
2020-Jan-25 07:30 124 2 gusting 10 8.3
2020-Jan-25 07:15 177 5 gusting 12 8.3
2020-Jan-25 07:03 131 5 gusting 9 8.3
2020-Jan-25 06:47 091 2 gusting 8 8.3
2020-Jan-25 06:31 095 1 gusting 6 8.3
2020-Jan-25 06:16 110 2 gusting 6 8.3
2020-Jan-25 06:01 085 1 gusting 7 7.8
2020-Jan-25 05:45 088 2 gusting 7 7.8
2020-Jan-25 05:31 075 3 gusting 8 7.8
2020-Jan-25 05:15 129 2 gusting 9 8.3
2020-Jan-25 05:01 091 5 gusting 8 8.3
2020-Jan-25 04:47 128 8.3
2020-Jan-25 04:30 089 0 gusting 8 8.3
2020-Jan-25 04:15 112 4 gusting 13 7.8
2020-Jan-25 04:00 096 3 gusting 11 7.8
2020-Jan-25 03:45 118 4 gusting 9 7.8
2020-Jan-25 03:30 169 3 gusting 7 7.8
2020-Jan-25 03:15 124 3 gusting 9 7.8
2020-Jan-25 03:00 109 3 gusting 11 7.8
2020-Jan-25 02:45 082 2 gusting 6 7.8
2020-Jan-25 02:33 097 2 gusting 11 7.8
2020-Jan-25 02:18 105 3 gusting 11 7.8
2020-Jan-25 02:01 133 3 gusting 8 7.8
2020-Jan-25 01:47 115 1 gusting 7 7.8
2020-Jan-25 01:17 102 2 gusting 7 7.8
2020-Jan-25 01:00 096 2 gusting 9 7.8
2020-Jan-25 00:47 110 2 gusting 8 8.3
2020-Jan-25 00:31 113 4 gusting 10 8.3
2020-Jan-25 00:16 071 2 gusting 6 8.3
2020-Jan-25 00:01 076 2 gusting 6 8.3
2020-Jan-24 23:46 042 0 gusting 6 8.9
2020-Jan-24 23:30 095 1 gusting 6 8.9
2020-Jan-24 23:16 106 2 gusting 5 8.9
2020-Jan-24 23:01 103 2 gusting 6 9.4
2020-Jan-24 22:45 053 1 gusting 6 9.4
2020-Jan-24 22:31 081 1 gusting 6 10.0
2020-Jan-24 22:16 139 2 gusting 7 10.0
2020-Jan-24 22:00 119 2 gusting 7 10.6
2020-Jan-24 21:45 064 0 gusting 3 10.6
2020-Jan-24 21:30 086 2 gusting 6 10.6
2020-Jan-24 21:15 072 0 gusting 5 10.6
2020-Jan-24 21:00 084 0 gusting 6 11.1
2020-Jan-24 20:45 048 0 gusting 2 11.1
2020-Jan-24 20:30 046 0 gusting 3 10.6
2020-Jan-24 20:16 101 10.6
2020-Jan-24 20:02 056 10.6
2020-Jan-24 19:48 133 0 gusting 6 10.0
2020-Jan-24 19:33 071 1 gusting 4 9.4
2020-Jan-24 19:16 046 1 gusting 4 9.4
2020-Jan-24 18:45 113 1 gusting 5 8.9
2020-Jan-24 18:31 077 0 gusting 7 8.9
2020-Jan-24 18:17 010 0 gusting 4 8.3
2020-Jan-24 18:01 055 1 gusting 3 8.3
2020-Jan-24 17:46 071 0 gusting 3 7.8
2020-Jan-24 17:31 048 1 gusting 4 7.8
2020-Jan-24 17:15 034 0 gusting 5 7.2
2020-Jan-24 17:00 125 2 gusting 6 6.7
2020-Jan-24 16:45 109 6.7
2020-Jan-24 16:30 092 1 gusting 4 6.1
2020-Jan-24 16:15 117 1 gusting 5 6.1
2020-Jan-24 16:00 104 2 gusting 6 5.6
2020-Jan-24 15:48 072 3 gusting 6 5.6
2020-Jan-24 15:31 088 1 gusting 6 5.0
2020-Jan-24 15:16 092 1 gusting 6 5.0
2020-Jan-24 15:01 044 0 gusting 2 3.9